| time (UTC) | temp F | wind direction | speed MPH | gust MPH | rain 1hr in | rain 24hr in | rain mn in | humidity % | barometer mb |
| 20260905091132 | 54 | 315 | 8.0 | 10.0 | 0.00 | 0.01 | 0.01 | 91 | 1017.8 |
| 20260905090108 | 54 | 315 | 7.0 | 11.0 | 0.00 | 0.01 | 0.01 | 91 | 1017.9 |
| 20260905085105 | 54 | 315 | 7.0 | 8.0 | 0.00 | 0.01 | 0.01 | 91 | 1017.9 |
| 20260905084104 | 0 | 0.0 | 0.0 | 0.00 | 0.01 | 0.01 | 1017.8 | ||
| 20260905083059 | 0 | 0.0 | 0.0 | 0.00 | 0.01 | 0.01 | 1017.8 | ||
| 20260905082054 | 53 | 12.0 | 13.0 | 0.00 | 0.01 | 0.01 | 86 | 1017.7 | |
| 20260905081113 | 53 | 295 | 10.0 | 13.0 | 0.00 | 0.01 | 0.01 | 86 | 1017.5 |
| 20260905080047 | 53 | 287 | 6.0 | 9.0 | 0.00 | 0.01 | 0.01 | 86 | 1017.4 |
| 20260905075043 | 53 | 315 | 8.0 | 12.0 | 0.00 | 0.01 | 0.01 | 85 | 1017.4 |
| 20260905074040 | 53 | 322 | 8.0 | 11.0 | 0.00 | 0.01 | 0.01 | 85 | 1017.3 |
| 20260905073057 | 53 | 315 | 8.0 | 11.0 | 0.00 | 0.01 | 0.01 | 84 | 1017.3 |
| 20260905072054 | 53 | 315 | 8.0 | 15.0 | 0.00 | 0.01 | 0.01 | 83 | 1017.1 |
| 20260905071051 | 53 | 315 | 8.0 | 11.0 | 0.00 | 0.01 | 0.01 | 82 | 1017.1 |
| 20260905070026 | 53 | 315 | 9.0 | 14.0 | 0.00 | 0.01 | 0.01 | 82 | 1017.1 |
| 20260905065022 | 53 | 315 | 9.0 | 12.0 | 0.00 | 0.01 | 0.01 | 81 | 1017.1 |
| 20260905064019 | 54 | 315 | 8.0 | 13.0 | 0.00 | 0.01 | 0.01 | 81 | 1017.1 |
| 20260905063038 | 54 | 315 | 9.0 | 13.0 | 0.00 | 0.01 | 0.01 | 81 | 1017.1 |
| 20260905062113 | 54 | 315 | 11.0 | 16.0 | 0.00 | 0.01 | 0.01 | 81 | 1017.0 |
| 20260905061108 | 54 | 315 | 11.0 | 16.0 | 0.00 | 0.01 | 0.01 | 81 | 1016.9 |
| 20260905060106 | 54 | 315 | 8.0 | 11.0 | 0.00 | 0.01 | 0.01 | 80 | 1017.0 |
| 20260905055123 | 54 | 315 | 8.0 | 11.0 | 0.00 | 0.01 | 0.01 | 80 | 1016.9 |
| 20260905054121 | 54 | 311 | 9.0 | 14.0 | 0.00 | 0.01 | 0.01 | 80 | 1016.6 |
| 20260905053054 | 54 | 308 | 10.0 | 15.0 | 0.00 | 0.01 | 0.01 | 80 | 1016.7 |
| 20260905052114 | 54 | 323 | 10.0 | 15.0 | 0.00 | 0.01 | 0.01 | 80 | 1016.9 |
| 20260905051048 | 54 | 311 | 11.0 | 15.0 | 0.00 | 0.01 | 0.01 | 78 | 1016.8 |
| 20260905050044 | 55 | 307 | 11.0 | 15.0 | 0.00 | 0.01 | 0.01 | 75 | 1016.8 |
| 20260905045042 | 55 | 310 | 13.0 | 17.0 | 0.00 | 0.01 | 0.01 | 73 | 1017.0 |
| 20260905044037 | 56 | 281 | 13.0 | 21.0 | 0.00 | 0.01 | 0.01 | 75 | 1017.0 |
| 20260905043033 | 56 | 315 | 14.0 | 19.0 | 0.00 | 0.01 | 0.01 | 75 | 1016.9 |
| 20260905042030 | 56 | 315 | 13.0 | 17.0 | 0.00 | 0.01 | 0.01 | 74 | 1017.2 |
| 20260905041027 | 56 | 315 | 13.0 | 20.0 | 0.00 | 0.01 | 0.01 | 72 | 1017.3 |
| 20260905040023 | 57 | 317 | 14.0 | 20.0 | 0.00 | 0.01 | 0.01 | 71 | 1017.5 |
| 20260905035041 | 57 | 315 | 12.0 | 17.0 | 0.00 | 0.01 | 0.01 | 71 | 1017.5 |
| 20260905034038 | 57 | 315 | 14.0 | 17.0 | 0.00 | 0.01 | 0.01 | 72 | 1017.4 |
| 20260905033114 | 57 | 332 | 14.0 | 21.0 | 0.00 | 0.01 | 0.01 | 71 | 1017.5 |
| 20260905032110 | 57 | 318 | 14.0 | 20.0 | 0.00 | 0.01 | 0.01 | 72 | 1017.7 |
| 20260905031105 | 57 | 315 | 14.0 | 17.0 | 0.00 | 0.01 | 0.01 | 73 | 1017.8 |
| 20260905030124 | 56 | 315 | 11.0 | 12.0 | 0.00 | 0.01 | 0.01 | 80 | 1017.7 |
| 20260905025058 | 56 | 315 | 12.0 | 16.0 | 0.01 | 0.01 | 0.01 | 81 | 1017.8 |
| 20260905024055 | 56 | 315 | 10.0 | 17.0 | 0.01 | 0.01 | 0.01 | 83 | 1017.9 |
| 20260905023053 | 55 | 315 | 8.0 | 11.0 | 0.01 | 0.01 | 0.01 | 83 | 1018.0 |
| 20260905022048 | 54 | 303 | 6.0 | 11.0 | 0.01 | 0.01 | 0.01 | 81 | 1017.9 |
| 20260905021044 | 54 | 274 | 4.0 | 9.0 | 0.01 | 0.01 | 0.01 | 78 | 1018.2 |
| 20260905020041 | 55 | 302 | 13.0 | 19.0 | 0.01 | 0.01 | 0.01 | 72 | 1018.3 |
| 20260905015059 | 56 | 320 | 12.0 | 17.0 | 0.00 | 0.00 | 0.00 | 70 | 1018.2 |
| 20260905014057 | 57 | 310 | 13.0 | 19.0 | 0.00 | 0.00 | 0.00 | 69 | 1018.4 |
| 20260905013032 | 57 | 311 | 12.0 | 17.0 | 0.00 | 0.00 | 0.00 | 67 | 1018.3 |
| 20260905012028 | 57 | 309 | 11.0 | 15.0 | 0.00 | 0.00 | 0.00 | 66 | 1018.5 |
| 20260905011024 | 58 | 310 | 11.0 | 15.0 | 0.00 | 0.00 | 0.00 | 68 | 1018.8 |
| 20260905010021 | 57 | 307 | 11.0 | 15.0 | 0.00 | 0.00 | 0.00 | 68 | 1019.1 |
| 20260905005017 | 56 | 306 | 10.0 | 15.0 | 0.00 | 0.00 | 0.00 | 68 | 1019.2 |
| 20260905004115 | 57 | 319 | 13.0 | 18.0 | 0.00 | 0.00 | 0.00 | 68 | 1019.3 |
| 20260905003112 | 58 | 312 | 13.0 | 18.0 | 0.00 | 0.00 | 0.00 | 70 | 1019.5 |
| 20260905002107 | 57 | 295 | 11.0 | 15.0 | 0.00 | 0.00 | 0.00 | 71 | 1019.5 |
| 20260905001104 | 56 | 315 | 12.0 | 21.0 | 0.00 | 0.00 | 0.00 | 71 | 1019.8 |
| 20260905000121 | 56 | 315 | 12.0 | 17.0 | 0.00 | 0.00 | 0.00 | 72 | 1019.7 |
| 20260904235057 | 56 | 297 | 13.0 | 21.0 | 0.00 | 0.00 | 0.00 | 71 | 1019.8 |
| 20260904234053 | 56 | 311 | 10.0 | 16.0 | 0.00 | 0.00 | 0.00 | 71 | 1019.8 |
| 20260904233050 | 57 | 306 | 9.0 | 14.0 | 0.00 | 0.00 | 0.00 | 70 | 1019.9 |
| 20260904232109 | 57 | 315 | 9.0 | 15.0 | 0.00 | 0.00 | 0.00 | 70 | 1019.9 |
| 20260904231043 | 56 | 312 | 10.0 | 16.0 | 0.00 | 0.00 | 0.00 | 72 | 1019.9 |
| 20260904230041 | 56 | 298 | 8.0 | 11.0 | 0.00 | 0.00 | 0.00 | 74 | 1019.8 |
| 20260904225057 | 58 | 235 | 5.0 | 11.0 | 0.00 | 0.00 | 0.00 | 77 | 1019.8 |
| 20260904224033 | 57 | 198 | 4.0 | 6.0 | 0.00 | 0.00 | 0.00 | 75 | 1019.9 |
| 20260904223028 | 55 | 237 | 4.0 | 8.0 | 0.00 | 0.00 | 0.00 | 73 | 1019.8 |
| 20260904222025 | 56 | 270 | 6.0 | 11.0 | 0.00 | 0.00 | 0.00 | 72 | 1019.8 |
| 20260904221022 | 56 | 261 | 3.0 | 5.0 | 0.00 | 0.00 | 0.00 | 72 | 1019.8 |
| 20260904220018 | 55 | 304 | 5.0 | 9.0 | 0.00 | 0.00 | 0.00 | 71 | 1019.8 |
| 20260904215117 | 55 | 289 | 5.0 | 9.0 | 0.00 | 0.00 | 0.00 | 71 | 1019.8 |
| 20260904214132 | 56 | 299 | 5.0 | 11.0 | 0.00 | 0.00 | 0.00 | 71 | 1019.8 |
| 20260904213109 | 56 | 269 | 3.0 | 9.0 | 0.00 | 0.00 | 0.00 | 70 | 1019.8 |
| 20260904212105 | 56 | 268 | 3.0 | 7.0 | 0.00 | 0.00 | 0.00 | 70 | 1019.8 |
| 20260904211143 | 57 | 295 | 3.0 | 5.0 | 0.00 | 0.00 | 0.00 | 69 | 1020.1 |
| 20260904210058 | 58 | 296 | 3.0 | 6.0 | 0.00 | 0.00 | 0.00 | 71 | 1020.2 |
| 20260904205055 | 58 | 266 | 1.0 | 4.0 | 0.00 | 0.00 | 0.00 | 78 | 1020.1 |
| 20260904204051 | 56 | 27 | 1.0 | 3.0 | 0.00 | 0.00 | 0.00 | 82 | 1019.8 |
| 20260904203108 | 53 | 79 | 0.0 | 2.0 | 0.00 | 0.00 | 0.00 | 84 | 1019.7 |
| 20260904202104 | 53 | 90 | 0.0 | 2.0 | 0.00 | 0.00 | 0.00 | 86 | 1019.6 |
| 20260904201040 | 52 | 90 | 2.0 | 3.0 | 0.00 | 0.00 | 0.00 | 87 | 1019.4 |
| 20260904200037 | 52 | 90 | 1.0 | 2.0 | 0.00 | 0.00 | 0.00 | 87 | 1019.5 |
| 20260904195033 | 51 | 90 | 1.0 | 2.0 | 0.00 | 0.00 | 0.00 | 88 | 1019.4 |
| 20260904194050 | 49 | 128 | 2.0 | 3.0 | 0.00 | 0.00 | 0.00 | 86 | 1019.3 |
| 20260904193026 | 49 | 140 | 2.0 | 4.0 | 0.00 | 0.00 | 0.00 | 86 | 1019.1 |
| 20260904192025 | 49 | 158 | 4.0 | 6.0 | 0.00 | 0.00 | 0.00 | 86 | 1019.1 |
| 20260904191020 | 49 | 147 | 4.0 | 5.0 | 0.00 | 0.00 | 0.00 | 86 | 1019.0 |
| 20260904190016 | 48 | 171 | 4.0 | 6.0 | 0.00 | 0.00 | 0.00 | 86 | 1018.9 |
| 20260904185112 | 48 | 172 | 5.0 | 8.0 | 0.00 | 0.00 | 0.00 | 86 | 1018.8 |
| 20260904184110 | 48 | 153 | 6.0 | 7.0 | 0.00 | 0.00 | 0.00 | 85 | 1018.6 |
| 20260904183126 | 48 | 172 | 5.0 | 8.0 | 0.00 | 0.00 | 0.00 | 85 | 1018.5 |
| 20260904182103 | 47 | 149 | 4.0 | 7.0 | 0.00 | 0.00 | 0.00 | 84 | 1018.6 |
| 20260904181100 | 47 | 146 | 5.0 | 8.0 | 0.00 | 0.00 | 0.00 | 84 | 1018.5 |
| 20260904180055 | 47 | 169 | 5.0 | 7.0 | 0.00 | 0.00 | 0.00 | 84 | 1018.4 |
| 20260904175053 | 47 | 142 | 4.0 | 6.0 | 0.00 | 0.00 | 0.00 | 84 | 1018.4 |
| 20260904174109 | 47 | 154 | 4.0 | 6.0 | 0.00 | 0.00 | 0.00 | 84 | 1018.4 |
| 20260904173104 | 47 | 176 | 5.0 | 8.0 | 0.00 | 0.00 | 0.00 | 84 | 1018.2 |
| 20260904172040 | 47 | 158 | 5.0 | 8.0 | 0.00 | 0.00 | 0.00 | 83 | 1018.0 |
| 20260904171038 | 47 | 157 | 5.0 | 7.0 | 0.00 | 0.00 | 0.00 | 83 | 1017.9 |
| 20260904170033 | 48 | 176 | 5.0 | 8.0 | 0.00 | 0.00 | 0.00 | 84 | 1017.8 |
| 20260904165030 | 48 | 178 | 6.0 | 9.0 | 0.00 | 0.00 | 0.00 | 84 | 1017.6 |
| 20260904164026 | 48 | 166 | 5.0 | 8.0 | 0.00 | 0.00 | 0.00 | 84 | 1017.6 |
| 20260904163023 | 48 | 171 | 5.0 | 8.0 | 0.00 | 0.00 | 0.00 | 84 | 1017.5 |
| 20260904162019 | 48 | 176 | 8.0 | 10.0 | 0.00 | 0.00 | 0.00 | 84 | 1017.2 |
| 20260904161017 | 48 | 175 | 7.0 | 9.0 | 0.00 | 0.00 | 0.00 | 84 | 1017.1 |
| 20260904160113 | 48 | 168 | 6.0 | 8.0 | 0.00 | 0.00 | 0.00 | 84 | 1017.0 |
| 20260904155110 | 49 | 176 | 7.0 | 11.0 | 0.00 | 0.00 | 0.00 | 84 | 1016.9 |
| 20260904154105 | 49 | 176 | 7.0 | 11.0 | 0.00 | 0.00 | 0.00 | 84 | 1016.9 |
| 20260904153103 | 50 | 182 | 7.0 | 11.0 | 0.00 | 0.00 | 0.00 | 84 | 1016.9 |
| 20260904152058 | 50 | 185 | 7.0 | 11.0 | 0.00 | 0.00 | 0.00 | 84 | 1016.7 |
| 20260904151115 | 50 | 176 | 6.0 | 9.0 | 0.00 | 0.00 | 0.00 | 84 | 1016.8 |
| 20260904150054 | 50 | 180 | 6.0 | 10.0 | 0.00 | 0.00 | 0.00 | 84 | 1016.8 |
| 20260904145048 | 50 | 184 | 7.0 | 11.0 | 0.00 | 0.00 | 0.00 | 83 | 1016.8 |
| 20260904144044 | 49 | 180 | 7.0 | 11.0 | 0.00 | 0.00 | 0.00 | 83 | 1016.8 |
| 20260904143041 | 49 | 179 | 7.0 | 10.0 | 0.00 | 0.00 | 0.00 | 82 | 1017.0 |
| 20260904142100 | 49 | 197 | 6.0 | 9.0 | 0.00 | 0.00 | 0.00 | 82 | 1017.1 |
| 20260904141036 | 49 | 180 | 7.0 | 11.0 | 0.00 | 0.00 | 0.00 | 81 | 1017.1 |
| 20260904140031 | 49 | 188 | 6.0 | 8.0 | 0.00 | 0.00 | 0.00 | 81 | 1017.2 |
| 20260904135027 | 49 | 186 | 7.0 | 10.0 | 0.00 | 0.00 | 0.00 | 81 | 1017.2 |
| 20260904134023 | 49 | 180 | 5.0 | 8.0 | 0.00 | 0.00 | 0.00 | 80 | 1017.1 |
| 20260904133020 | 49 | 183 | 6.0 | 10.0 | 0.00 | 0.00 | 0.00 | 80 | 1016.9 |
| 20260904132016 | 49 | 190 | 8.0 | 11.0 | 0.00 | 0.00 | 0.00 | 80 | 1017.0 |
| 20260904131134 | 49 | 184 | 8.0 | 11.0 | 0.00 | 0.00 | 0.00 | 81 | 1016.9 |
| 20260904130130 | 50 | 209 | 9.0 | 11.0 | 0.00 | 0.00 | 0.00 | 82 | 1016.9 |
| 20260904125106 | 50 | 208 | 9.0 | 12.0 | 0.00 | 0.00 | 0.00 | 83 | 1016.8 |
| 20260904124103 | 50 | 197 | 7.0 | 11.0 | 0.00 | 0.00 | 0.00 | 83 | 1016.6 |
| 20260904123059 | 50 | 199 | 9.0 | 15.0 | 0.00 | 0.00 | 0.00 | 83 | 1016.3 |
| 20260904122058 | 50 | 193 | 6.0 | 10.0 | 0.00 | 0.00 | 0.00 | 83 | 1016.2 |
| 20260904121054 | 49 | 201 | 6.0 | 10.0 | 0.00 | 0.00 | 0.00 | 83 | 1016.1 |
| 20260904120049 | 49 | 180 | 6.0 | 11.0 | 0.00 | 0.00 | 0.00 | 83 | 1016.1 |
| 20260904115046 | 49 | 199 | 5.0 | 8.0 | 0.00 | 0.00 | 0.00 | 83 | 1015.7 |
| 20260904114042 | 49 | 194 | 7.0 | 11.0 | 0.00 | 0.00 | 0.00 | 83 | 1015.7 |
| 20260904113039 | 50 | 192 | 9.0 | 12.0 | 0.00 | 0.00 | 0.00 | 84 | 1015.8 |
| 20260904112036 | 50 | 192 | 9.0 | 13.0 | 0.00 | 0.00 | 0.00 | 85 | 1015.7 |
| 20260904111031 | 50 | 217 | 9.0 | 14.0 | 0.00 | 0.00 | 0.00 | 85 | 1015.5 |
| 20260904110029 | 49 | 217 | 7.0 | 14.0 | 0.00 | 0.00 | 0.00 | 84 | 1015.5 |
| 20260904105106 | 50 | 183 | 4.0 | 9.0 | 0.00 | 0.00 | 0.00 | 84 | 1015.5 |
| 20260904104021 | 50 | 184 | 3.0 | 5.0 | 0.00 | 0.00 | 0.00 | 85 | 1015.4 |
| 20260904103019 | 50 | 185 | 5.0 | 10.0 | 0.00 | 0.00 | 0.00 | 85 | 1015.4 |
| 20260904102114 | 50 | 211 | 5.0 | 10.0 | 0.00 | 0.00 | 0.00 | 85 | 1015.2 |
| 20260904101112 | 50 | 223 | 6.0 | 11.0 | 0.00 | 0.00 | 0.00 | 85 | 1015.0 |
| 20260904100109 | 50 | 226 | 3.0 | 7.0 | 0.00 | 0.00 | 0.00 | 85 | 1014.9 |
| 20260904095106 | 51 | 268 | 6.0 | 11.0 | 0.00 | 0.00 | 0.00 | 85 | 1014.9 |
| 20260904094100 | 51 | 244 | 10.0 | 16.0 | 0.00 | 0.00 | 0.00 | 85 | 1014.9 |
| 20260904093100 | 51 | 215 | 7.0 | 13.0 | 0.00 | 0.00 | 0.00 | 85 | 1014.7 |
| 20260904092053 | 51 | 238 | 6.0 | 10.0 | 0.00 | 0.00 | 0.00 | 84 | 1014.5 |